Погода в Кантышеве

Россия / Республика Ингушетия     43°13′41″N   44°38′54″E
темп.,
°C
ветер,
м/с
пор.,
м/с
влажн.,
%
обл.,
%
осадки,
мм/ч
давл.,
гПа
погр.,
м
1 декабря, ср
ср100:00+12ю35550 0.0 99355
03:00+8зсз715823 0.0 997391
06:00+6ююв018995 0.0 999173
09:00+7св258388 0.1 1001251
12:00+9св2371100 0.1 1002290
15:00+4с5770100 1.3 1007729
18:00+2св3498100 1.0 1011215
21:00+2в3498100 2.2 1012216
2 декабря, чт
чт200:00+2юв378713 0.0 1012331
03:00+1всв2284100 0.0 101342
06:00+1ю227891 0.0 101414
09:00+3зсз24744 0.0 1018197
12:00+4ссз227295 0.0 1020840
15:00+4в227285 0.0 1021515
18:00+2вюв11825 0.0 102312
21:00+1в22830 0.0 102317
3 декабря, пт
пт300:000в22831 0.0 102322
03:000в22770 0.0 102212
06:000в21705 0.0 102110
09:00+3вюв115357 0.0 102154
12:00+7св114053 0.0 1019234
15:00+7ссв114793 0.0 101824
18:00+4юз1156100 0.0 101910
21:00+3юз22614 0.0 101911
4 декабря, сб
сб400:00+3юз22600 0.0 102012
03:00+3юз226116 0.0 102118
06:00+3юз335555 0.0 102119
09:00+6ююз224586 0.0 102032
12:00+11зсз113345 0.0 1017175
15:00+11ссв113998 0.0 101610
18:00+7юв224879 0.0 101610
21:00+6ююв1154100 0.0 101610
5 декабря, вс
вс500:00+6ююв11515 0.0 101510
03:00+5ююв1151100 0.0 101410
06:00+5ю1146100 0.0 101410
09:00+6ююз114396 0.0 101510
12:00+10зсз2237100 0.0 1014238
15:00+9зсз1149100 0.0 101545
18:00+6зюз1158100 0.0 101710
21:00+5ююз116199 0.0 101810